Total_Precipitation_Accumulation
0.00 0.02 0.04 0.01 0.02 0.01 0.02 0.00 0.00 0.02 0.03 0.05 0.02 0.04 0.03 0.01 0.00 0.00 0.00 0.00 0.00 0.01 0.05 0.07 0.05 0.07 0.06 0.03 0.02 0.01 0.01 0.03 0.03 0.01 0.01 0.01 0.01 0.01 0.01 0.01 0.03 0.06 0.11
0.00 0.02 0.04 0.03 0.03 0.04 0.03 0.02 0.01 0.01 0.01 0.01 0.03 0.03 0.05 0.03 0.02 0.00 0.00 0.00 0.00 0.04 0.07 0.05 0.04 0.04 0.02 0.01 0.01 0.00 0.00 0.00 0.00 0.00 0.00 0.00 0.00 0.00 0.00 0.00 0.00 0.01 0.02
0.01 0.02 0.02 0.08 0.06 0.06 0.05 0.05 0.02 0.01 0.02 0.02 0.03 0.03 0.04 0.05 0.03 0.00 0.00 0.00 0.01 0.08 0.05 0.03 0.02 0.01 0.01 0.01 0.00 0.00 0.00 0.00 0.00 0.00 0.00 0.00 0.00 0.00 0.00 0.00 0.00 0.00 0.00
0.02 0.04 0.04 0.09 0.09 0.09 0.06 0.04 0.04 0.02 0.04 0.05 0.04 0.04 0.07 0.08 0.02 0.00 0.00 0.00 0.05 0.10 0.04 0.01 0.01 0.01 0.01 0.00 0.00 0.00 0.00 0.00 0.00 0.00 0.00 0.00 0.00 0.00 0.00 0.00 0.00 0.00 0.00
0.02 0.07 0.04 0.08 0.09 0.08 0.07 0.03 0.02 0.02 0.03 0.09 0.10 0.09 0.16 0.19 0.02 0.01 0.02 0.03 0.12 0.10 0.03 0.01 0.01 0.01 0.00 0.00 0.00 0.00 0.00 0.00 0.00 0.00 0.00 0.00 0.00 0.00 0.00 0.00 0.00 0.00 0.00
0.04 0.09 0.11 0.22 0.19 0.13 0.15 0.08 0.04 0.02 0.04 0.09 0.16 0.22 0.33 0.27 0.10 0.02 0.05 0.07 0.06 0.02 0.01 0.02 0.02 0.01 0.00 0.00 0.00 0.00 0.00 0.00 0.00 0.00 0.00 0.00 0.00 0.00 0.00 0.00 0.00 0.00 0.00
0.13 0.16 0.33 0.52 0.45 0.18 0.19 0.17 0.09 0.09 0.13 0.12 0.21 0.30 0.36 0.24 0.22 0.05 0.06 0.06 0.05 0.02 0.02 0.02 0.01 0.01 0.00 0.00 0.00 0.00 0.00 0.00 0.00 0.00 0.00 0.00 0.00 0.00 0.00 0.00 0.00 0.00 0.00
0.60 0.59 0.59 0.60 0.72 0.52 0.31 0.17 0.12 0.09 0.23 0.24 0.31 0.47 0.42 0.32 0.26 0.15 0.08 0.05 0.07 0.03 0.02 0.02 0.00 0.00 0.00 0.00 0.00 0.00 0.00 0.00 0.00 0.00 0.00 0.00 0.00 0.00 0.00 0.00 0.00 0.00 0.00
1.06 0.87 0.55 0.37 0.42 0.37 0.23 0.10 0.02 0.02 0.09 0.20 0.24 0.40 0.35 0.33 0.26 0.20 0.15 0.09 0.12 0.08 0.03 0.02 0.00 0.00 0.00 0.00 0.00 0.00 0.00 0.00 0.00 0.00 0.00 0.00 0.00 0.00 0.00 0.00 0.00 0.00 0.00
1.07 1.42 1.23 0.95 0.59 0.31 0.21 0.11 0.03 0.02 0.03 0.27 0.17 0.19 0.16 0.14 0.11 0.14 0.10 0.07 0.14 0.11 0.04 0.02 0.00 0.00 0.00 0.00 0.00 0.00 0.00 0.00 0.00 0.00 0.00 0.00 0.00 0.00 0.00 0.00 0.00 0.00 0.00
0.84 1.15 1.76 1.52 0.96 0.69 0.52 0.26 0.12 0.06 0.01 0.21 0.24 0.13 0.12 0.07 0.04 0.03 0.02 0.02 0.04 0.07 0.06 0.03 0.00 0.00 0.00 0.00 0.00 0.00 0.00 0.00 0.00 0.00 0.00 0.00 0.00 0.00 0.00 0.00 0.00 0.00 0.00
0.79 0.79 1.21 1.64 1.06 0.70 0.64 0.45 0.24 0.15 0.08 0.09 0.23 0.17 0.11 0.09 0.03 0.03 0.01 0.01 0.02 0.02 0.04 0.06 0.04 0.00 0.00 0.00 0.00 0.00 0.00 0.00 0.00 0.00 0.00 0.00 0.00 0.00 0.00 0.00 0.00 0.00 0.00
0.49 0.67 0.66 1.06 1.18 0.58 0.77 0.51 0.23 0.08 0.07 0.07 0.17 0.29 0.16 0.12 0.11 0.04 0.01 0.01 0.01 0.01 0.01 0.01 0.03 0.01 0.00 0.00 0.00 0.00 0.00 0.00 0.00 0.00 0.00 0.00 0.00 0.00 0.00 0.00 0.00 0.01 0.02
0.25 0.37 0.78 0.72 0.98 0.65 0.70 0.66 0.23 0.07 0.05 0.05 0.07 0.32 0.28 0.16 0.17 0.17 0.03 0.03 0.02 0.00 0.01 0.01 0.00 0.01 0.00 0.00 0.00 0.00 0.00 0.00 0.00 0.00 0.00 0.00 0.00 0.00 0.01 0.00 0.00 0.00 0.02
0.14 0.25 0.57 0.71 0.73 0.76 0.51 0.76 0.34 0.09 0.04 0.03 0.05 0.09 0.41 0.30 0.23 0.20 0.24 0.07 0.03 0.03 0.01 0.02 0.00 0.00 0.00 0.00 0.00 0.00 0.00 0.00 0.00 0.00 0.00 0.00 0.00 0.00 0.02 0.05 0.02 0.01 0.02
0.06 0.15 0.44 0.72 0.98 0.94 0.67 0.92 0.66 0.22 0.07 0.02 0.02 0.02 0.07 0.36 0.33 0.40 0.26 0.17 0.11 0.03 0.03 0.02 0.03 0.02 0.00 0.00 0.00 0.00 0.00 0.00 0.00 0.00 0.00 0.00 0.00 0.00 0.00 0.06 0.10 0.08 0.05
0.04 0.09 0.20 0.62 1.27 1.28 0.65 0.67 1.09 0.62 0.20 0.06 0.01 0.01 0.01 0.08 0.35 0.33 0.67 0.44 0.14 0.12 0.12 0.08 0.07 0.06 0.05 0.02 0.00 0.00 0.00 0.00 0.00 0.00 0.00 0.00 0.00 0.00 0.00 0.00 0.02 0.08 0.08
0.09 0.05 0.13 0.31 0.77 1.18 0.53 0.25 0.77 0.92 0.59 0.23 0.04 0.01 0.01 0.00 0.05 0.25 0.28 0.59 0.54 0.37 0.28 0.20 0.16 0.15 0.14 0.09 0.04 0.01 0.00 0.00 0.00 0.00 0.00 0.00 0.00 0.00 0.00 0.00 0.00 0.01 0.05
0.10 0.07 0.05 0.16 0.30 0.48 0.37 0.28 0.36 0.69 0.78 0.45 0.21 0.05 0.00 0.01 0.01 0.05 0.14 0.17 0.29 0.32 0.30 0.31 0.25 0.18 0.15 0.10 0.04 0.01 0.00 0.00 0.00 0.00 0.00 0.00 0.00 0.00 0.00 0.00 0.00 0.00 0.01
0.15 0.12 0.06 0.05 0.11 0.11 0.27 0.43 0.48 0.63 0.77 0.76 0.34 0.16 0.04 0.03 0.04 0.04 0.08 0.12 0.12 0.15 0.16 0.12 0.14 0.14 0.10 0.06 0.05 0.03 0.01 0.00 0.00 0.00 0.00 0.00 0.00 0.00 0.00 0.00 0.00 0.00 0.00
0.31 0.19 0.12 0.06 0.07 0.10 0.20 0.24 0.34 0.64 0.93 1.07 0.80 0.52 0.30 0.24 0.19 0.12 0.12 0.15 0.16 0.08 0.06 0.08 0.08 0.05 0.04 0.04 0.05 0.03 0.01 0.00 0.00 0.00 0.00 0.00 0.00 0.00 0.00 0.00 0.00 0.00 0.00
0.44 0.34 0.27 0.22 0.25 0.28 0.41 0.40 0.26 0.40 0.67 0.97 1.07 0.84 0.75 0.64 0.47 0.27 0.20 0.17 0.16 0.20 0.09 0.07 0.08 0.07 0.05 0.03 0.03 0.04 0.02 0.01 0.01 0.00 0.00 0.00 0.00 0.00 0.00 0.00 0.00 0.00 0.00
0.97 0.81 0.76 0.86 0.68 0.50 0.42 0.35 0.27 0.29 0.42 0.81 1.06 1.01 0.97 0.88 0.76 0.75 0.74 0.53 0.28 0.37 0.52 0.44 0.38 0.31 0.27 0.24 0.20 0.14 0.06 0.02 0.01 0.01 0.01 0.00 0.00 0.00 0.00 0.00 0.00 0.00 0.00
0.85 0.69 0.93 1.56 1.70 0.57 0.44 0.76 0.72 0.38 0.41 0.49 1.01 0.98 0.70 0.64 0.59 0.57 0.63 0.90 1.31 1.33 0.87 0.76 0.74 0.69 0.76 0.77 0.71 0.48 0.34 0.24 0.15 0.08 0.03 0.02 0.01 0.01 0.01 0.01 0.01 0.03 0.07
0.48 0.50 0.58 0.91 1.54 1.35 0.96 1.40 1.56 1.09 0.65 0.55 0.72 1.14 1.06 0.95 0.75 0.63 0.54 0.61 0.79 1.17 1.48 1.29 1.26 1.40 1.32 0.99 0.81 0.62 0.53 0.48 0.51 0.42 0.21 0.11 0.08 0.06 0.06 0.07 0.09 0.11 0.11
0.42 0.50 0.48 0.59 0.93 1.59 1.59 1.47 1.55 1.70 1.80 1.43 1.14 1.40 1.33 1.05 1.01 0.90 0.77 0.69 0.69 0.78 0.92 1.22 1.22 1.12 1.16 1.25 1.21 1.03 0.79 0.69 0.57 0.65 0.54 0.35 0.29 0.21 0.16 0.15 0.12 0.10 0.07